Location: Unnamed
(51.5169°N, 0.1311°W)
Time: 21:29:02
(UTC+01:00)

Tiros 1 - Pass Details

Date: 06 August 2024
Orbit: 623 x 655 km, 48.4° (Epoch: 16 September)

Event Time Altitude Azimuth Distance (km) Brightness Sun altitude
Rises 11:19:58 0° 270° (W) 2,976 10.3 49.1°
Reaches altitude 10° 11:22:21 10° 266° (W) 2,061 9.6 49.3°
Maximum altitude 11:27:00 56° 189° (S) 771 8.9 49.8°
Drops below altitude 10° 11:31:37 10° 111° (ESE) 2,041 10.4 50.2°
Sets 11:33:58 0° 107° (ESE) 2,944 11.0 50.4°
